Regional Weather Roundup
Issued by NWS

Home | Current Version | Previous Version | Graphics & Text | Print | Product List | Glossary On
Versions: 1 2 3 4 5 6 7 8 9 10 11 12 13 14 15 16 17 18 19 20 21 22 23 24 25 26 27 28 29 30 31 32 33 34 35 36 37 38 39 40 41 42 43 44 45 46 47 48 49 50
000
ASUS43 KIND 011609
RWRIN

WEATHER ROUNDUP FOR INDIANA
NATIONAL WEATHER SERVICE INDIANAPOLIS IN
1200 PM EDT WED JUL 01 2015

NOTE: "FAIR" INDICATES FEW OR NO CLOUDS BELOW 12,000 FEET WITH NO
SIGNIFICANT WEATHER AND/OR OBSTRUCTIONS TO VISIBILITY.

* - STATION DOES NOT REPORT WEATHER SUCH AS PRECIPITATION OR FOG.

+ - STATION NOT QUALITY CONTROLLED BY THE NATIONAL WEATHER SERVICE.
    USE DATA WITH CAUTION...ESPECIALLY DEWPOINT AND RELATIVE
    HUMIDITY OBSERVATIONS.

INZ001>003-010>013-019-020-011700-
NORTHWEST INDIANA

CITY           SKY/WX    TMP DP  RH WIND       PRES   REMARKS
GARY /AIRPORT/ MOSUNNY   63  55  77 N9        29.98S
KNOX *+        MOSUNNY   64  55  72 N9        29.96S
LA PORTE +     MOSUNNY   66  56  68 N8        29.98S
MICHIGAN CITY+ CLOUDY    61  57  88 N7        29.99R
MONTICELLO +   SUNNY     68  61  78 NE7       29.96R
RENSSELAER +   MOSUNNY   68  61  77 NE5       29.96S
VALPARAISO     MOSUNNY   66  55  67 N9        29.97F

$$

LMZ046-743>745-011700-
SOUTHERN LAKE MICHIGAN

STATION/POSITION TIME  TEMP    WIND        PRES    WAVE
                       AIR SEA DIR/SP/G            HT
                 (UTC) (F)     (DEG/KT/KT) (MB)    (FT)
BURNS HARBOR     1600   58      20/  7/ 10 1015.9S
MICHIGAN CITY    1600   58     350/  9/ 11   N/A
5NW MICH CITY    1600   57 65   30/  8/ 12   N/A     3

$$

INZ004-005-014>016-021>024-011700-
NORTH CENTRAL INDIANA

CITY           SKY/WX    TMP DP  RH WIND       PRES   REMARKS
ELKHART        MOSUNNY   66  54  63 NW8       29.97R
GOSHEN         MOSUNNY   66  56  70 W8        29.96R
LOGANSPORT +   PTSUNNY   68  54  60 NW3       29.97R
PERU/GRISSOM   MOSUNNY   69  60  74 NE5       29.95R
ROCHESTER +    SUNNY     70  59  68 N5        29.97R
SOUTH BEND     CLOUDY    66  54  65 NW10      29.98R
WARSAW +         N/A     68  57  68 N5        29.96S

$$

INZ006>009-017-018-025>027-011700-
NORTHEAST INDIANA

CITY           SKY/WX    TMP DP  RH WIND       PRES   REMARKS
ANGOLA *+      MOSUNNY   66  57  72 W6        29.95R
AUBURN +       MOSUNNY   68  54  60 W9        29.96R
FORT WAYNE     MOSUNNY   70  58  65 N8        29.95S
HUNTINGTON +   SUNNY     68  59  71 N6        29.96R

$$

INZ028-029-035-036-043>045-051>053-011700-
WEST CENTRAL INDIANA

CITY           SKY/WX    TMP DP  RH WIND       PRES   REMARKS
CRAWFORDSVL +  CLOUDY    68  58  70 CALM      29.96R
GREENCASTLE +  PTSUNNY   70  59  68 S5        29.96R
LAFAYETTE      MOSUNNY   69  61  75 VRB3      29.95R
TERRE HAUTE    PTSUNNY   72  66  81 CALM      29.95R

$$

INZ030>032-037>040-046>048-054>057-064-065-011700-
CENTRAL INDIANA

CITY           SKY/WX    TMP DP  RH WIND       PRES   REMARKS
ANDERSON       SUNNY     72  55  56 CALM      29.97R
CP ATTERBURY + MOSUNNY   73  61  64 E5        29.96S
COLUMBUS       PTSUNNY   73  59  60 E3        29.96R
FISHERS *+     MOSUNNY   70  61  73 CALM      29.96
FRANKFORT +    MOSUNNY   72  61  68 CALM      29.97R
GREENWOOD *+   MOSUNNY   73  59  60 SE5       29.97R
INDIANAPOLIS   PTSUNNY   72  59  63 VRB3      29.94R
-EAGLE CREEK   MOSUNNY   72  60  66 VRB5      29.95R
KOKOMO *+      MOSUNNY   72  59  64 N3        29.95S
MARION +       SUNNY     69  57  66 N5        29.96S
MT COMFORT *+  MOSUNNY   72  54  53 CALM      29.97R
SHELBYVILLE    MOSUNNY   75  61  61 CALM      29.96R
ZIONSVILLE +   MOSUNNY   72  59  63 CALM      29.97R

$$

INZ033-034-041-042-049-050-058-059-011700-
EAST CENTRAL INDIANA

CITY           SKY/WX    TMP DP  RH WIND       PRES   REMARKS
MUNCIE         SUNNY     72  60  66 VRB3      29.96R

$$

INZ060-061-067>069-081>083-085>088-011700-
SOUTHWEST INDIANA

CITY           SKY/WX    TMP DP  RH WIND       PRES   REMARKS
EVANSVILLE     LGT RAIN  75  71  87 SW8       29.96R FOG
HUNTINGBURG *+ CLOUDY    75  70  83 SW6       29.96R
WASHINGTON +   CLOUDY    75  67  78 SE5       29.93F

$$

INZ062-063-066-070>080-084-089>092-011700-
SOUTH CENTRAL AND SOUTHEAST INDIANA

CITY           SKY/WX    TMP DP  RH WIND       PRES   REMARKS
BLOOMINGTON    PTSUNNY   73  65  75 S3        29.95R
MADISON *+     SUNNY     72  63  73 CALM      29.98R
NORTH VERNON + MOSUNNY   75  64  69 CALM      29.96S
SEYMOUR +      MOSUNNY   75  66  73 S3        29.96R

$$




USA.gov is the U.S. government's official web portal to all federal, state and local government web resources and services.